Flag for Aruba Weather past 2 weeks in Oranjestad, Aruba

Now
90 °F

Passing clouds.


Feels Like: 108 °F
Forecast: 81 / 89 °F
Wind: 25 mph from East

Location: Queen Beatrix Airport - Aruba

Current Time: Aug 4, 2015 at 3:03:53 PM

Latest Report: Aug 4, 2015 at 2:00 PM


Visibility: N/A

Pressure: 29.86 "Hg

Humidity: 75%

Dew point: 81 °F

Location of OranjestadLocation

Historic Weather in Oranjestad — Graph

°F

Oranjestad temperature yesterday

Maximum temperature yesterday: 90 °F (at 12:00 PM)
Minimum temperature yesterday: 81 °F (at 2:00 AM)
Average temperature yesterday: 84 °F

Past Weeks' High & Low Weather Summary

 TemperatureHumidityPressure
High91 °F (Jul 21, 1:00 PM)100% (Aug 4, 1:00 PM)30.01 "Hg (Aug 4, 1:00 PM)
Low79 °F (Jul 21, 3:00 PM)24% (Jul 29, 4:00 AM)29.77 "Hg (Jul 26, 4:00 PM)
Average84 °F80%29.89 "Hg
* Reported Jul 20 2:00 PM — Aug 4 2:00 PM, Oranjestad, Weather by CustomWeather, © 2015

Note: Actual official high and low records may vary slightly from our data, if they occured in-between our weather recording intervals... More about our weather records

Advertising

Oranjestad weather history for previous 24 hours

 ConditionsComfort  
Time TempWeatherWind HumidityBarometerVisibility
2:00 PM
Tue, Aug 4
90 °FPassing clouds.25 mph75%29.86 "HgN/A
1:00 PM91 °FPassing clouds.24 mph100%29.89 "HgN/A
12:00 PM90 °FPassing clouds.28 mph71%29.92 "HgN/A
11:00 AM88 °FPassing clouds.28 mph75%29.92 "HgN/A
10:00 AM86 °FScattered clouds.23 mph79%29.92 "HgN/A
9:00 AM86 °FScattered clouds.20 mph79%29.92 "HgN/A
8:00 AM84 °FScattered clouds.20 mph79%29.89 "HgN/A
7:00 AM82 °FPassing clouds.16 mph84%29.89 "HgN/A
6:00 AM81 °FPassing clouds.16 mph89%29.86 "HgN/A
5:00 AM81 °FPassing clouds.13 mph89%29.86 "HgN/A
4:00 AM81 °FPassing clouds.12 mph89%29.86 "HgN/A
3:00 AM82 °FPassing clouds.15 mph84%29.86 "HgN/A
2:00 AM82 °FPassing clouds.12 mph84%29.86 "HgN/A
1:00 AM82 °FPassing clouds.15 mph84%29.89 "HgN/A
12:00 AM82 °FPassing clouds.18 mph84%29.89 "HgN/A
11:00 PM
Mon, Aug 3
82 °FPassing clouds.17 mph84%29.89 "HgN/A
10:00 PM82 °FPassing clouds.18 mph84%29.86 "HgN/A
9:00 PM82 °FPassing clouds.21 mph84%29.83 "HgN/A
8:00 PM82 °FPassing clouds.23 mph84%29.83 "HgN/A
7:00 PM84 °FPassing clouds.23 mph79%29.80 "HgN/A
6:00 PM84 °FPassing clouds.24 mph84%29.80 "HgN/A
5:00 PM86 °FPassing clouds.23 mph79%29.80 "HgN/A
4:00 PM88 °FPassing clouds.23 mph75%29.80 "HgN/A
3:00 PM90 °FPassing clouds.24 mph75%29.80 "HgN/A
Weather by CustomWeather, © 2015

See weather overviewHow to use our weather pages